Location: Unspecified
(52.4292°N, 19.3359°E)
Time: 00:38:52
(UTC+02:00)

Altair - Pass Details

Date: 22 May 2024
Orbit: 1502 x 1682 km, 47.2° (Epoch: 19 June)

Event Time Altitude Azimuth Distance (km) Brightness Sun altitude
Rises 16:22:45 0° 284° (WNW) 4,924 10.9 36.8°
Reaches altitude 10° 16:26:06 10° 278° (W) 3,943 10.8 36.3°
Maximum altitude 16:35:23 43° 212° (SSW) 2,230 9.4 34.9°
Drops below altitude 10° 16:44:35 10° 145° (SE) 3,906 9.5 33.5°
Sets 16:47:54 0° 139° (SE) 4,873 9.9 33.0°
